Location: Banff
(51.1667°N, 115.5667°W)
Time: 13:06:12
(UTC+00:00)

Vanguard 1 Rocket - Pass Details

Date: 02 December 2020
Orbit: 655 x 4222 km, 34.3° (Epoch: 23 January)

Event Time Altitude Azimuth Distance (km) Brightness Sun altitude
Rises 06:01:27 0° 197° (SSW) 7,650 11.9 -56.0°
Enters shadow 06:01:35 - 197° (SSW) 7,635 11.9 -56.0°
Reaches altitude 10° 06:07:47 10° 186° (S) 7,007 - -56.6°
Maximum altitude 06:26:02 27° 140° (SE) 6,044 - -58.2°
Drops below altitude 10° 06:43:32 10° 93° (E) 6,808 - -59.4°
Exits shadow 06:44:24 - 92° (E) 6,888 11.7 -59.4°
Sets 06:49:24 0° 83° (E) 7,419 12.0 -59.7°
